Tracking 17154 objects as of 31-July-2015
HD Live streaming from Space Station

COSMOS 2251 DEB

Track COSMOS 2251 DEB now!
10-day predictions
COSMOS 2251 DEB is classified as:


NORAD ID: 34447
Int'l Code: 1993-036SQ
Perigee: 647.5 km
Apogee: 689.0 km
Inclination: 74.0 °
Period: 98.0 minutes
Semi major axis: 7039 km
RCS: 0.038 m2 (small)
Launch date: June 16, 1993
Source: Commonwealth of Independent States (former USSR) (CIS)

Note: This is SATELLITE DEBRIS
Your satellite tracking list
Your tracking list is empty





NASA's NSSDC Master Catalog

Two Line Element Set (TLE):
1 34447U 93036SQ  15211.60529059  .00004979  00000-0  82966-3 0  9992
2 34447 074.0305 259.8957 0029429 261.6133 220.3998 14.69991150340449

Source of the keplerian elements: AFSPC

N2YO: 238